Weather History for Sanford, ME

Change the Weather History Date:

Monday, January 21, 2013

  Actual Average Record
Temperature  
Mean Temperature 20 °F -  
Max Temperature 26 °F 26 °F 57 °F (2006)
Min Temperature 15 °F 7 °F -7 °F (2005)
Degree Days  
Heating Degree Days 44    
Moisture  
Dew Point 2 °F    
Average Humidity 44    
Maximum Humidity 93    
Minimum Humidity 31    
Precipitation  
Precipitation 0.00 in - - ()
Sea Level Pressure  
Sea Level Pressure 29.94 in    
Wind  
Wind Speed 11 mph (West)    
Max Wind Speed 22 mph    
Max Gust Speed 32 mph    
Visibility 10 miles    
Events      
Averages and records for this station are not official NWS values.
T = Trace of Precipitation, MM = Missing Value Source: NWS Daily Summary

Daily Weather History Graph

Daily Weather History Graph

Search for Another Location

Airport:

Trip Planner

Search our weather history database for the weather conditions in past years. The results will help you decide how hot, cold, wet, or windy it might be!

Date:

Astronomy

Jan. 21, 2013 Rise Set
Actual Time 7:08 AM EST 4:40 PM EST
Civil Twilight 6:37 AM EST 5:11 PM EST
Nautical Twilight 6:02 AM EST 5:46 PM EST
Astronomical Twilight 5:28 AM EST 6:20 PM EST
Moon 12:17 PM EST 2:34 AM EST
Length of Visible Light 10h 34m
Length of Day
9h 31m
Waxing Gibbous, 75% of the Moon is Illuminated
Jan 21
Waxing Gibbous
Jan 26
Full
Feb 3
Last Quarter
Feb 10
New
Feb 17
First Quarter

Hourly Weather History & Observations

Time (EST) Temp. Windchill Dew Point Humidity Pressure Visibility Wind Dir Wind Speed Gust Speed Precip Events Conditions
12:15 AM 24.8 °F 12.9 °F -0.4 °F 34% 29.86 in 10.0 mi West 13.8 mph 25.3 mph N/A   Clear
12:35 AM 23.0 °F 7.6 °F -0.4 °F 36% 29.86 in 10.0 mi West 21.9 mph 31.1 mph N/A   Clear
12:55 AM 23.0 °F 9.2 °F -0.4 °F 36% 29.87 in 10.0 mi West 17.3 mph 32.2 mph N/A   Clear
1:15 AM 23.0 °F 9.6 °F -2.2 °F 33% 29.88 in 10.0 mi West 16.1 mph 23.0 mph N/A   Clear
1:35 AM 21.2 °F 7.3 °F -0.4 °F 39% 29.89 in 10.0 mi West 16.1 mph 26.5 mph N/A   Clear
1:55 AM 21.2 °F 5.6 °F -2.2 °F 36% 29.90 in 10.0 mi West 20.7 mph 26.5 mph N/A   Clear
2:15 AM 21.2 °F 8.3 °F -2.2 °F 36% 29.91 in 10.0 mi West 13.8 mph 27.6 mph N/A   Clear
2:35 AM 21.2 °F 8.3 °F -4.0 °F 33% 29.91 in 10.0 mi West 13.8 mph 21.9 mph N/A   Clear
2:55 AM 21.2 °F 9.5 °F -2.2 °F 36% 29.92 in 10.0 mi West 11.5 mph 26.5 mph N/A   Clear
3:15 AM 19.4 °F 4.1 °F -4.0 °F 36% 29.93 in 10.0 mi West 18.4 mph 21.9 mph N/A   Clear
3:35 AM 19.4 °F 6.6 °F -2.2 °F 39% 29.94 in 10.0 mi West 12.7 mph 18.4 mph N/A   Clear
3:55 AM 19.4 °F 4.5 °F -2.2 °F 39% 29.94 in 10.0 mi West 17.3 mph 24.2 mph N/A   Clear
4:35 AM 17.6 °F 5.0 °F -2.2 °F 42% 29.95 in 10.0 mi WSW 11.5 mph 18.4 mph N/A   Clear
4:55 AM 17.6 °F 5.7 °F -0.4 °F 45% 29.96 in 10.0 mi West 10.4 mph 20.7 mph N/A   Clear
5:15 AM 17.6 °F 5.7 °F -4.0 °F 38% 29.96 in 10.0 mi West 10.4 mph - N/A   Clear
5:55 AM 17.6 °F 5.0 °F -5.8 °F 35% 29.97 in 10.0 mi West 11.5 mph 18.4 mph N/A   Clear
6:35 AM 15.8 °F 3.4 °F -5.8 °F 38% 29.99 in 10.0 mi West 10.4 mph 17.3 mph N/A   Clear
6:55 AM 15.8 °F 6.1 °F -4.0 °F 41% 29.98 in 10.0 mi West 6.9 mph - N/A   Clear
7:15 AM 15.8 °F 6.1 °F -5.8 °F 38% 29.98 in 10.0 mi West 6.9 mph - N/A   Clear
7:35 AM 15.8 °F 5.1 °F -0.4 °F 49% 30.00 in 10.0 mi WSW 8.1 mph - N/A   Clear
7:55 AM 15.8 °F 5.1 °F -2.2 °F 45% 30.01 in 10.0 mi WSW 8.1 mph - N/A   Clear
8:15 AM 17.6 °F 7.3 °F -2.2 °F 42% 30.02 in 10.0 mi WSW 8.1 mph - N/A   Clear
8:35 AM 19.4 °F 8.6 °F -2.2 °F 39% 30.02 in 10.0 mi WSW 9.2 mph - N/A   Clear
8:55 AM 19.4 °F 9.5 °F -0.4 °F 42% 30.02 in 10.0 mi West 8.1 mph - N/A   Clear
9:15 AM 19.4 °F 8.6 °F -2.2 °F 39% 30.02 in 10.0 mi West 9.2 mph - N/A   Clear
9:35 AM 21.2 °F 10.9 °F -2.2 °F 36% 30.02 in 10.0 mi WNW 9.2 mph - N/A   Clear
9:55 AM 21.2 °F 7.8 °F -4.0 °F 33% 30.03 in 10.0 mi West 15.0 mph 20.7 mph N/A   Clear
10:15 AM 21.2 °F 8.9 °F -2.2 °F 36% 30.03 in 10.0 mi WNW 12.7 mph 17.3 mph N/A   Clear
10:35 AM 23.0 °F 10.6 °F -2.2 °F 33% 30.02 in 10.0 mi WNW 13.8 mph 24.2 mph N/A   Clear
10:55 AM 23.0 °F 13.9 °F -2.2 °F 33% 30.01 in 10.0 mi NW 8.1 mph 16.1 mph N/A   Clear
11:15 AM 24.8 °F 14.0 °F -2.2 °F 31% 30.00 in 10.0 mi West 11.5 mph 23.0 mph N/A   Clear
11:35 AM 24.8 °F 15.3 °F -2.2 °F 31% 29.99 in 10.0 mi West 9.2 mph 19.6 mph N/A   Clear
11:55 AM 24.8 °F 13.4 °F -0.4 °F 34% 29.97 in 10.0 mi West 12.7 mph 19.6 mph N/A   Clear
12:15 PM 24.8 °F 14.0 °F -2.2 °F 31% 29.96 in 10.0 mi West 11.5 mph 21.9 mph N/A   Clear
12:35 PM 24.8 °F 16.9 °F -0.4 °F 34% 29.96 in 10.0 mi West 6.9 mph - N/A   Clear
12:55 PM 26.6 °F 19.1 °F -0.4 °F 31% 29.95 in 10.0 mi West 6.9 mph - N/A   Mostly Cloudy
1:16 PM 26.6 °F 18.2 °F -0.4 °F 31% 29.95 in 10.0 mi West 8.1 mph - N/A   Overcast
1:35 PM 26.6 °F 17.5 °F -0.4 °F 31% 29.94 in 10.0 mi West 9.2 mph 17.3 mph N/A   Overcast
1:55 PM 26.6 °F 19.1 °F 1.4 °F 34% 29.94 in 10.0 mi West 6.9 mph - N/A   Overcast
2:35 PM 26.6 °F 21.2 °F 3.2 °F 37% 29.94 in 10.0 mi SSW 4.6 mph - N/A   Overcast
2:55 PM 24.8 °F 16.1 °F 1.4 °F 36% 29.94 in 10.0 mi South 8.1 mph - N/A   Overcast
3:15 PM 24.8 °F 16.9 °F 1.4 °F 36% 29.93 in 10.0 mi SSW 6.9 mph - N/A   Overcast
3:35 PM 24.8 °F 16.1 °F 1.4 °F 36% 29.93 in 10.0 mi SSW 8.1 mph - N/A   Overcast
3:55 PM 24.8 °F 16.1 °F 3.2 °F 40% 29.93 in 10.0 mi SSW 8.1 mph - N/A   Overcast
4:15 PM 24.8 °F 16.1 °F 1.4 °F 36% 29.92 in 10.0 mi SW 8.1 mph - N/A   Overcast
4:35 PM 24.8 °F 16.9 °F 3.2 °F 40% 29.92 in 10.0 mi South 6.9 mph - N/A   Overcast
4:55 PM 24.8 °F 15.3 °F 3.2 °F 40% 29.91 in 10.0 mi SW 9.2 mph - N/A   Overcast
5:15 PM 24.8 °F 17.9 °F 3.2 °F 40% 29.91 in 10.0 mi SW 5.8 mph - N/A   Overcast
5:35 PM 24.8 °F 19.1 °F 6.8 °F 46% 29.92 in 10.0 mi SW 4.6 mph - N/A   Overcast
5:55 PM 24.8 °F 16.9 °F 3.2 °F 40% 29.91 in 10.0 mi SW 6.9 mph - N/A   Overcast
6:15 PM 24.8 °F - 8.6 °F 50% 29.91 in 10.0 mi Calm Calm - N/A   Overcast
6:35 PM 24.8 °F 17.9 °F 5.0 °F 43% 29.92 in 10.0 mi SW 5.8 mph - N/A   Overcast
6:55 PM 23.0 °F 15.8 °F 6.8 °F 50% 29.92 in 10.0 mi WSW 5.8 mph - N/A   Overcast
7:15 PM 23.0 °F 13.9 °F 8.6 °F 54% 29.93 in 10.0 mi SSW 8.1 mph - N/A   Overcast
7:55 PM 21.2 °F 13.6 °F 15.8 °F 80% 29.92 in 10.0 mi SW 5.8 mph - N/A   Overcast
8:15 PM 21.2 °F 14.9 °F 8.6 °F 58% 29.92 in 10.0 mi WSW 4.6 mph - N/A   Overcast
8:35 PM 21.2 °F 16.4 °F 17.6 °F 86% 29.91 in 10.0 mi West 3.5 mph - N/A   Overcast
8:55 PM 21.2 °F 16.4 °F 8.6 °F 58% 29.90 in 10.0 mi NNW 3.5 mph - N/A   Mostly Cloudy
9:15 PM 21.2 °F 16.4 °F 15.8 °F 80% 29.89 in 10.0 mi North 3.5 mph - N/A   Mostly Cloudy
9:55 PM 19.4 °F 14.3 °F 12.2 °F 74% 29.87 in 10.0 mi NE 3.5 mph - N/A   Scattered Clouds
10:15 PM 17.6 °F 12.3 °F 12.2 °F 79% 29.85 in 10.0 mi NE 3.5 mph - N/A   Mostly Cloudy
10:35 PM 15.8 °F - 6.8 °F 68% 29.83 in 10.0 mi Calm Calm - N/A   Partly Cloudy
10:55 PM 15.8 °F - 12.2 °F 86% 29.84 in 10.0 mi Calm Calm - N/A   Mostly Cloudy
11:15 PM 17.6 °F 12.3 °F 10.4 °F 73% 29.82 in 10.0 mi North 3.5 mph - N/A   Overcast
11:35 PM 17.6 °F - 15.8 °F 93% 29.81 in 10.0 mi Calm Calm - N/A   Overcast